Regional Weather Roundup
Issued by NWS Charleston, SC

Current Version | Previous Version | Text Only | Print | Product List | Glossary Off
Versions: 1 2 3 4 5 6 7 8 9 10 11 12 13 14 15 16 17 18 19 20 21 22 23 24 25 26 27 28 29 30 31 32 33 34 35 36 37 38 39 40 41 42 43 44 45 46 47 48 49 50
875 ASUS42 KCHS 251312 RWRCHS REGIONAL WEATHER ROUNDUP NATIONAL WEATHER SERVICE CHARLESTON SC 900 AM EDT TUE JUL 25 2017 NOTE: "FAIR" INDICATES FEW OR NO CLOUDS BELOW 12,000 FEET WITH NO SIGNIFICANT WEATHER AND/OR OBSTRUCTIONS TO VISIBILITY. NOT ALL STATIONS ARE QUALITY CONTROLLED. USE DATA WITH CAUTION... ESPECIALLY DEWPOINT OBSERVATIONS. SCZ027-030-031-034>040-042>050-251400- ...SOUTHEAST SOUTH CAROLINA... CITY SKY/WX TMP DP RH WIND PRES REMARKS N CHARLESTON MOSUNNY 79 75 87 SW6 30.07R WATERFRONT PRK N/A 80 77 90 W5 30.05R JOHNS ISLAND PTSUNNY 81 77 89 W6 30.07S PINOPOLIS N/A 79 75 89 SW5 30.00R MONCKS CORNER FAIR 77 75 94 W3 30.07S SUMMERVILLE FAIR 79 73 83 CALM 30.08S BEAUFORT MCAS CLOUDY 79 77 94 SW6 30.08S BEAUFORT ARPT CLOUDY 79 73 83 W6 30.08S HILTON HEAD IS MOSUNNY 77 75 94 SW9 30.10R WALTERBORO CLOUDY 77 73 88 SW3 30.08S ALLENDALE NOT AVBL ...SOUTHERN MIDLANDS AND PEE DEE... CITY SKY/WX TMP DP RH WIND PRES REMARKS GEORGETOWN FAIR 79 77 94 W6 30.06F KINGSTREE PTSUNNY 77 73 88 SW3 30.07R ORANGEBURG MOSUNNY 78 73 84 CALM 30.07S BARNWELL FAIR 79 77 94 CALM 30.09R AIKEN FAIR 77 72 83 W5 30.12R MANNING FAIR 77 73 88 W18G25 30.07R COLUMBIA MOSUNNY 81 73 76 W5 30.07R SUMTER MOSUNNY 80 73 78 W5 30.04R FLORENCE SUNNY 80 74 81 NW8 30.06R MYRTLE BEACH MOSUNNY 81 75 83 W7 30.06S N MYRTLE BEACH PTSUNNY 78 76 93 W7 30.05S $$ GAZ063-065-086>088-099>101-113>116-118-119-134>141-150-251400- ...SOUTHEAST GEORGIA... CITY SKY/WX TMP DP RH WIND PRES REMARKS SAVANNAH ARPT LGT RAIN 79 73 82 W7 30.10S HUNTER AAF MOSUNNY 79 75 87 W12 30.07R FORT STEWART CLOUDY 80 74 80 W8 30.08R STATESBORO CLOUDY 79 79 100 W3 30.09S SYLVANIA CLOUDY 78 77 96 CALM 30.10S CLAXTON PTSUNNY 80 76 90 CALM 30.10S ...CSRA...CENTRAL AND FAR SOUTHEAST GEORGIA... CITY SKY/WX TMP DP RH WIND PRES REMARKS THOMSON CLOUDY 78 73 84 N5 30.15R AUGUSTA-BUSH CLOUDY 79 74 84 CALM 30.08R AUGUSTA-DANIEL CLOUDY 79 71 76 CALM 30.09R SWAINSBORO PTSUNNY 77 77 100 W6 30.12R VIDALIA CLOUDY 77 73 88 CALM 30.11S EASTMAN FAIR 79 78 99 CALM 30.13S HAZLEHURST FAIR 79 79 100 CALM 30.11R ALMA CLOUDY 79 75 87 W5 30.11R WAYCROSS CLOUDY 83 83 98 W5 30.12R HX 100 JESUP NOT AVBL BAXLEY CLOUDY 79 79 100 W3 30.11S BRUNSWICK PTSUNNY 81 77 89 W6 30.12R SAINT SIMONS PTSUNNY 82 77 84 W8 30.10R HX 90 $$ SCZ027-028-034-036>038-045-046-048>050-GAZ119-141-251400- ...LAKE AND SUPPLEMENTAL COASTAL OBSERVATIONS... STATION/POSITION TIME TEMP WIND PRES WAVE SWELL AIR SEA DIR/SP/G HT/PER HT/PER/DIR (UTC) (F) (DEG/KT/KT) (MB) (FT/S) (FT/S/D) WINYAH BAY 1145 78 260/ 4 1017.0 LAKE MURRAY NOT AVBL ACE BASIN NERRS 1145 78 CALM 1018.0 FORT PULASKI 1248 78 85 280/ 8/ 13 1019.3R SAPELO ISLAND 1200 79 260/ 10 1019.0 $$ ANZ835-935-AMZ111-154-330-350-352-354-370-450-454-472-251400- ...C-MAN AND BUOY OBSERVATIONS... STATION/POSITION TIME TEMP WIND PRES WAVE SWELL AIR SEA DIR/SP/G HT/PER HT/PER/DIR (UTC) (F) (DEG/KT/KT) (MB) (FT/S) (FT/S/D) BUOY 41004 1250 81 82 240/ 14/ 17 1017.5R 3/ 5 2/110/ 9 BUOY 41008 1250 80 81 260/ 14/ 16 1018.6R 3/ 4 2/ 80/ 9 FOLLY BEACH CMAN 1200 79 250/ 5/ 7 1018.7R CAPERS NEARSHORE 1208 81 84 280/ 10/ 14 1018.0R FRIPP NEARSHORE 1208 80 84 270/ 8/ 10 1018.2R STATION/POSITION TIME TEMP WIND PRES WAVE SWELL AIR SEA DIR/SP/G HT/PER HT/PER/DIR (UTC) (F) (DEG/KT/KT) (MB) (FT/S) (FT/S/D) 5E ST. MARYS GA 1230 77 N/A 2/ 9 FRYING PAN BUOY 1250 81 82 250/ 14/ 16 1017.3R 5/ 6 2/130/ 9 BUOY 41025 1250 81 84 250/ 16/ 17 1016.4R 5/ 6 2/230/ 9 CAPE LOOKOUT NC 1200 80 250/ 10/ 12 1016.7R BUOY 41002 1150 83 83 220/ 16/ 19 1019.3 5/ 6 2/100/10 BUOY 41010 1250 85 84 190/ 10/ 12 1020.3R 3/ 8 2/110/ 8 ST AUGUSTINE FL 1300 82 74 260/ 6/ 9 1020.9R $$

USA.gov is the U.S. government's official web portal to all federal, state and local government web resources and services.